Les articles d'ExpertMaritime.pro..


(Charente-Maritime - Poitou-Charentes)


Voir plan
Situation :

Le port de plaisance de La Palmyre est situé dans la partie occidentale de la commune des Mathes, dans le quartier balnéaire de La Palmyre, à 5 milles marins de Port-Médoc (rive gauche) et 7 milles marin du port de Royan (rive droite).

Aménagé à l'entrée de la passe de Bonne Anse, dont le cordon dunaire le protège des assauts océaniques, il est le premier port que rencontrent les plaisanciers en entrant dans l'embouchure de la Gironde.

Du fait de bancs de sable en constante évolution, il est nécessaire d'y entrer avec prudence.

En effet, la baie de Bonne Anse est un espace naturel mouvant, évoluant en permanence, au gré des tempêtes et des courants.

Depuis plusieurs années, la baie tend à se combler, et la flèche sablonneuse qui la ceinture, gonflée par de nouveaux apports de sable, s'engraisse et se rapproche sensiblement de la côte, dont elle n'est séparée que de quarante mètres à marée basse.

Une série d'épis et un dragage régulier ont cependant été mis en place afin d'éviter un envahissement du port par les sables

Pratique :

Le Port
315 places à flot
Bassin de 1m

Services :
Eau,
électricité (220 V) sur ponton,
sanitaires,
WC,
douches,
téléphone public,
treuil pour mise à l’eau et sortie des bateaux (payant).

V.H.F. 9.
Capitainerie :
Port de La Palmyre - Les Mathes - 17570 La Palmyre
Tél. : 05 46 22 44 31 - 06 75 29 29 18
capitainerie-du-port@orange.fr
Mairie : Tél. : 05 46 22 48 72
Fax : 05 46 22 49 23
mathes-palmyre@mairie17.com
Responsable du Port : Erick Garatin
Météo locale sur la zone Port de Bonne Anse
Heure (UTC) Dir.Vent Vit.Vent (nds) Force (Bft) T°min T°max P (mb) Hum.Rel.
02/05/2026 - 15:00:00 au 02/05/2026 - 18:00:00 192° (SSW) 12 4 17°C 18°C 1014 83 %
02/05/2026 - 18:00:00 au 02/05/2026 - 21:00:00 217° (SW) 13 4 16°C 17°C 1014 88 %
02/05/2026 - 21:00:00 au 03/05/2026 - 00:00:00 171° (S) 8 3 15°C 15°C 1013 93 %
03/05/2026 - 00:00:00 au 03/05/2026 - 03:00:00 237° (WSW) 6 2 15°C 15°C 1012 91 %
03/05/2026 - 03:00:00 au 03/05/2026 - 06:00:00 264° (W) 6 2 15°C 15°C 1012 87 %
03/05/2026 - 06:00:00 au 03/05/2026 - 09:00:00 237° (WSW) 5 2 16°C 16°C 1013 81 %
03/05/2026 - 09:00:00 au 03/05/2026 - 12:00:00 242° (WSW) 6 2 16°C 16°C 1012 77 %
03/05/2026 - 12:00:00 au 03/05/2026 - 15:00:00 288° (WNW) 7 3 16°C 16°C 1011 78 %
03/05/2026 - 15:00:00 au 03/05/2026 - 18:00:00 330° (NNW) 6 2 16°C 16°C 1011 77 %
03/05/2026 - 18:00:00 au 03/05/2026 - 21:00:00 329° (NNW) 6 2 15°C 15°C 1012 84 %
03/05/2026 - 21:00:00 au 04/05/2026 - 00:00:00 302° (WNW) 5 2 15°C 15°C 1012 84 %
04/05/2026 - 00:00:00 au 04/05/2026 - 03:00:00 302° (WNW) 8 3 14°C 14°C 1012 85 %
04/05/2026 - 03:00:00 au 04/05/2026 - 06:00:00 307° (NW) 11 4 14°C 14°C 1012 84 %
04/05/2026 - 06:00:00 au 04/05/2026 - 09:00:00 292° (WNW) 7 3 14°C 14°C 1013 76 %
04/05/2026 - 09:00:00 au 04/05/2026 - 12:00:00 295° (WNW) 9 3 15°C 15°C 1013 74 %
04/05/2026 - 12:00:00 au 04/05/2026 - 15:00:00 291° (WNW) 9 3 15°C 15°C 1013 73 %
04/05/2026 - 15:00:00 au 04/05/2026 - 18:00:00 290° (WNW) 10 3 15°C 15°C 1013 74 %
04/05/2026 - 18:00:00 au 04/05/2026 - 21:00:00 293° (WNW) 8 3 14°C 14°C 1014 75 %
04/05/2026 - 21:00:00 au 05/05/2026 - 00:00:00 304° (NW) 6 2 13°C 13°C 1013 78 %
05/05/2026 - 00:00:00 au 05/05/2026 - 03:00:00 307° (NW) 5 2 13°C 13°C 1013 79 %
05/05/2026 - 03:00:00 au 05/05/2026 - 06:00:00 316° (NW) 4 2 13°C 13°C 1012 77 %
05/05/2026 - 06:00:00 au 05/05/2026 - 09:00:00 277° (W) 4 2 14°C 14°C 1013 73 %
05/05/2026 - 09:00:00 au 05/05/2026 - 12:00:00 263° (W) 8 3 15°C 15°C 1012 71 %
05/05/2026 - 12:00:00 au 05/05/2026 - 15:00:00 266° (W) 9 3 15°C 15°C 1012 72 %
05/05/2026 - 15:00:00 au 05/05/2026 - 18:00:00 279° (W) 7 3 14°C 14°C 1012 73 %
05/05/2026 - 18:00:00 au 05/05/2026 - 21:00:00 305° (NW) 8 3 13°C 13°C 1012 74 %
05/05/2026 - 21:00:00 au 06/05/2026 - 00:00:00 288° (WNW) 8 3 14°C 14°C 1011 76 %
06/05/2026 - 00:00:00 au 06/05/2026 - 03:00:00 280° (W) 8 3 13°C 13°C 1010 79 %
06/05/2026 - 03:00:00 au 06/05/2026 - 06:00:00 278° (W) 11 4 14°C 14°C 1010 78 %
06/05/2026 - 06:00:00 au 06/05/2026 - 09:00:00 257° (WSW) 11 4 15°C 15°C 1010 72 %
06/05/2026 - 09:00:00 au 06/05/2026 - 12:00:00 241° (WSW) 13 4 15°C 15°C 1010 74 %
06/05/2026 - 12:00:00 au 06/05/2026 - 15:00:00 296° (WNW) 12 4 15°C 15°C 1010 73 %
06/05/2026 - 15:00:00 au 06/05/2026 - 18:00:00 303° (WNW) 14 4 14°C 14°C 1011 73 %
06/05/2026 - 18:00:00 au 06/05/2026 - 21:00:00 308° (NW) 10 3 14°C 14°C 1012 77 %
06/05/2026 - 21:00:00 au 07/05/2026 - 00:00:00 284° (WNW) 9 3 13°C 13°C 1012 76 %
07/05/2026 - 00:00:00 au 07/05/2026 - 03:00:00 268° (W) 8 3 13°C 13°C 1012 74 %
07/05/2026 - 03:00:00 au 07/05/2026 - 06:00:00 252° (WSW) 6 2 13°C 13°C 1012 70 %
07/05/2026 - 06:00:00 au 07/05/2026 - 09:00:00 223° (SW) 4 2 14°C 14°C 1013 64 %
07/05/2026 - 09:00:00 au 07/05/2026 - 12:00:00 264° (W) 5 2 15°C 15°C 1013 62 %
07/05/2026 - 12:00:00 au 07/05/2026 - 15:00:00 341° (NNW) 7 3 15°C 15°C 1012 63 %
openweathermap
Ces informations sont partiellement extraites de Wikipedia, et des sites pertinents pour cette zone. Compilation d'informations publiques
Votre Expert Maritime Plaisance se déplace sur Port de Bonne Anse, La Palmyre - Les Mathes, 17570, Charente-Maritime